This is the latest recevied weather packets stored in our database for station/object F4FEB-13. If no packets are shown the sender has not sent any weather packets the latest 10 day(s).
| Time | Temp. | Humidity | Pressure | Rain* | Wind** | Luminosity | Snow |
|---|---|---|---|---|---|---|---|
| 1777307083 | 20° C | 37% | 1016.2 hPa | 0 mm | - | - | - |
| 1777306483 | 20° C | 31% | 1016.3 hPa | 0 mm | - | - | - |
| 1777306183 | 20° C | 30% | 1016.2 hPa | 0 mm | - | - | - |
| 1777305883 | 20° C | 33% | 1016.3 hPa | 0 mm | - | - | - |
| 1777305583 | 20° C | 30% | 1016.3 hPa | 0 mm | - | - | - |
| 1777304983 | 20.56° C | 30% | 1016.2 hPa | 0 mm | - | - | - |
| 1777304383 | 20.56° C | 30% | 1016.4 hPa | 0 mm | - | - | - |
| 1777304083 | 20.56° C | 31% | 1016.4 hPa | 0 mm | - | - | - |
| 1777303783 | 20.56° C | 30% | 1016.4 hPa | 0 mm | - | - | - |
| 1777300783 | 20.56° C | 28% | 1016.7 hPa | 0 mm | - | - | - |
| 1777300483 | 20.56° C | 29% | 1016.8 hPa | 0 mm | - | - | - |
| 1777300183 | 21.11° C | 35% | 1016.8 hPa | 0 mm | - | - | - |
| 1777299883 | 20.56° C | 35% | 1016.9 hPa | 0 mm | - | - | - |
| 1777299583 | 20.56° C | 31% | 1017.1 hPa | 0 mm | - | - | - |
| 1777299283 | 20.56° C | 30% | 1017.2 hPa | 0 mm | - | - | - |
| 1777298983 | 20.56° C | 31% | 1017.1 hPa | 0 mm | - | - | - |
| 1777296586 | 20° C | 36% | 1017.6 hPa | 0 mm | - | - | - |
| 1777296583 | 20° C | 36% | 1017.6 hPa | 0 mm | - | - | - |
| 1777296283 | 20.56° C | 38% | 1017.6 hPa | 0 mm | - | - | - |
| 1777295683 | 20.56° C | 35% | 1017.7 hPa | 0 mm | - | - | - |
| 1777295383 | 20.56° C | 41% | 1017.7 hPa | 0 mm | - | - | - |
| 1777295083 | 20° C | 37% | 1017.8 hPa | 0 mm | - | - | - |
| 1777293283 | 20° C | 39% | 1017.9 hPa | 0 mm | - | - | - |
| 1777292983 | 20° C | 38% | 1017.9 hPa | 0 mm | - | - | - |
| 1777292683 | 19.44° C | 41% | 1018 hPa | 0 mm | - | - | - |
* Rain latest hour (hover to see other rain measurements)
** Current wind speed in m/s (hover to see current wind gust speed)